VE2CSM-13 Weather Reports


time (UTC)temp
C
wind
direction
speed
KPH
gust
KPH
rain 1hr
cm
rain 24hr
cm
rain mn
cm
humidity
%
barometer
mb
20260505210504 16 297 9.7 22.5 0.03 0.46 0.46 77 1009.5
20260505200503 21 268 8.0 22.5 0.00 0.43 0.43 58 1007.7
20260505190503 20 248 4.8 16.1 0.00 0.43 0.43 68 1008.5
20260505180503 16 239 1.6 4.8 0.13 0.43 0.43 87 1009.1
20260505173502 14 252 0.0 1.6 0.18 0.43 0.43 92 1009.6
20260505170503 14 334 0.0 1.6 0.30 0.30 0.30 91 1010.0
20260505163502 14 296 0.0 1.6 0.25 0.25 0.25 88 1010.3
20260505160502 16 266 1.6 6.4 0.00 0.00 0.00 73 1010.7
20260505150503 18 246 4.8 11.3 0.00 0.03 0.00 60 1010.4
20260505140502 17 193 3.2 9.7 0.00 0.18 0.00 54 1010.8
20260505120502 11 98 1.6 6.4 0.00 0.46 0.00 74 1011.6
20260505113502 9 53 1.6 3.2 0.00 0.46 0.00 78 1011.8
20260505110502 8 11 0.0 3.2 0.00 0.46 0.00 80 1011.6
20260505100503 5 357 1.6 4.8 0.00 0.46 0.00 89 1011.6
20260505090502 5 129 0.0 3.2 0.00 0.46 0.00 91 1011.9
20260505080506 6 58 1.6 4.8 0.00 0.46 0.00 88 1012.4
20260505074902 6 47 1.6 4.8 0.00 0.46 0.00 88 1012.6
20260505073305 6 42 1.6 6.4 0.00 0.46 0.00 88 1012.8
20260505071703 6 61 1.6 11.3 0.00 0.46 0.00 86 1012.7
20260505065303 6 63 1.6 3.2 0.00 0.46 0.00 86 1012.9
20260505064504 6 70 0.0 3.2 0.00 0.46 0.00 87 1013.0
20260505063702 6 51 0.0 3.2 0.00 0.46 0.00 86 1013.1
20260505062902 6 49 1.6 3.2 0.00 0.46 0.00 86 1013.0
20260505062502 6 111 0.0 3.2 0.00 0.46 0.00 85 1013.2
20260505062102 6 111 0.0 3.2 0.00 0.46 0.00 85 1013.2
20260505061702 6 79 0.0 6.4 0.00 0.46 0.00 85 1013.3
20260505061302 6 58 0.0 6.4 0.00 0.46 0.00 85 1013.3
20260505060903 6 58 0.0 6.4 0.00 0.46 0.00 85 1013.3
20260505060702 6 30 1.6 4.8 0.00 0.46 0.00 84 1013.4
20260505060502 6 30 1.6 4.8 0.00 0.46 0.00 84 1013.4
20260505060402 6 30 1.6 4.8 0.00 0.46 0.00 84 1013.4
20260505060302 6 30 1.6 4.8 0.00 0.46 0.00 84 1013.4
20260505060202 6 30 1.6 4.8 0.00 0.46 0.00 84 1013.4
20260505050607 7 86 3.2 11.3 0.00 0.46 0.00 81 1014.1
20260505040607 7 59 1.6 6.4 0.00 0.46 0.00 80 1014.4
20260505033606 7 73 3.2 9.7 0.00 0.46 0.46 80 1014.6
20260505030607 7 82 1.6 4.8 0.00 0.46 0.46 80 1015.0
20260505020607 7 71 0.0 1.6 0.00 0.46 0.46 80 1015.2
20260505013606 7 37 0.0 1.6 0.00 0.46 0.46 80 1015.4
20260505010606 7 111 0.0 1.6 0.00 0.46 0.46 80 1015.6
20260505000607 7 155 0.0 3.2 0.00 0.46 0.46 80 1015.2
20260504230608 9 123 1.6 3.2 0.00 0.46 0.46 72 1014.9
20260504223607 11 211 1.6 6.4 0.00 0.46 0.46 69 1015.0
20260504220607 11 308 1.6 4.8 0.00 0.46 0.46 67 1015.0